26 settembre 2022

Tempo Codice Tempo metereologico Temp. Vista Base nuvolosa Vento METAR/SPECI
07:30
L
8 °C 300 m - Var 000° 0 kt METAR LFBE 260530Z AUTO 00000KT 0300 R27/0325N FG VV/// 08/08 Q1015 NOSIG
07:00
L
8 °C 300 m - Var Var 1 kt METAR LFBE 260500Z AUTO VRB01KT 0300 R27/0375N FG VV/// 08/08 Q1015 NOSIG
06:30
L
8 °C 250 m - 150° 150° 1 kt METAR LFBE 260430Z AUTO 15001KT 0250 R27/0325N FG VV/// 08/08 Q1015 NOSIG
06:00
L
8 °C 300 m - Var 000° 0 kt METAR LFBE 260400Z AUTO 00000KT 0300 R27/0350N FG VV/// 08/08 Q1015 NOSIG
05:30
L
7 °C 300 m - Var 000° 0 kt METAR LFBE 260330Z AUTO 00000KT 0300 R27/0350N FG VV/// 07/07 Q1015 NOSIG
05:00
L
7 °C 550 m - Var 000° 0 kt METAR LFBE 260300Z AUTO 00000KT 0550 R27/0700N FG VV/// 07/07 Q1015 TEMPO 0300 FG
04:30
L
7 °C 500 m - 050° 050° 2 kt METAR LFBE 260230Z AUTO 05002KT 0500 R27/0650N FG VV/// 07/07 Q1015 TEMPO 0300 FG
04:00
L
7 °C 450 m - Var Var 2 kt METAR LFBE 260200Z AUTO VRB02KT 0450 R27/1100U FG VV/// 07/07 Q1015 TEMPO 0300 FG
03:30
L
7 °C 400 m - Var 000° 0 kt METAR LFBE 260130Z AUTO 00000KT 0450 0400 R27/0450D FG VV/// 07/07 Q1016 TEMPO 0300 FG
03:00
L
7 °C 700 m - 190° 190° 2 kt METAR LFBE 260100Z AUTO 19002KT 0800 0700 R27/1100D FG VV/// 07/07 Q1016 TEMPO 0300 FG NSC
02:30
I
7 °C 1,9 km - Var Var 2 kt METAR LFBE 260030Z AUTO VRB02KT 1900 BR FEW001 07/07 Q1016 TEMPO 0300 FG VV///
02:00
V
7 °C 10 km+ - 020° 020° 3 kt METAR LFBE 260000Z AUTO 02003KT CAVOK 07/07 Q1016 TEMPO 1500 MIFG
01:30
V
8 °C 10 km+ - 170° 170° 2 kt METAR LFBE 252330Z AUTO 17002KT CAVOK 08/08 Q1016 TEMPO 1500 MIFG
01:00
L
8 °C 700 m - 060° 060° 2 kt METAR LFBE 252300Z AUTO 06002KT 9000 0700 R27/1600D BCFG NSC 08/08 Q1016
00:30
V
8 °C 10 km+ - 080° 080° 2 kt METAR LFBE 252230Z AUTO 08002KT CAVOK 08/08 Q1017
00:00
V
8 °C 10 km+ - Var 000° 0 kt METAR LFBE 252200Z AUTO 00000KT CAVOK 08/08 Q1017

25 settembre 2022

Tempo Codice Tempo metereologico Temp. Vista Base nuvolosa Vento METAR/SPECI
23:30
V
9 °C 10 km+ - Var 000° 0 kt METAR LFBE 252130Z AUTO 00000KT CAVOK 09/08 Q1017
23:00
V
9 °C 10 km+ - 230° 230° 1 kt METAR LFBE 252100Z AUTO 23001KT CAVOK 09/09 Q1017
22:30
V
10 °C 10 km+ - 220° 220° 2 kt METAR LFBE 252030Z AUTO 22002KT CAVOK 10/09 Q1017 NOSIG
22:00
V
11 °C 10 km+ - Var 000° 0 kt METAR LFBE 252000Z AUTO 00000KT CAVOK 11/10 Q1017 NOSIG
21:30
V
11 °C 10 km+ - 060° 060° 2 kt METAR LFBE 251930Z AUTO 06002KT CAVOK 11/10 Q1016 NOSIG
21:00
V
12 °C 10 km+ - 090° 090° 1 kt METAR LFBE 251900Z AUTO 09001KT CAVOK 12/10 Q1016 NOSIG
20:30
V
14 °C 10 km+ - 160° 160° 1 kt METAR LFBE 251830Z AUTO 16001KT CAVOK 14/10 Q1016 NOSIG
20:00
V
16 °C 10 km+ - 030° 030° 3 kt METAR LFBE 251800Z AUTO 03003KT CAVOK 16/10 Q1015 NOSIG
19:30
V
17 °C 10 km+ - 040° 040° 3 kt METAR LFBE 251730Z AUTO 04003KT CAVOK 17/10 Q1015 NOSIG
19:00
V
18 °C 10 km+ - 050° 050° 4 kt METAR LFBE 251700Z AUTO 05004KT CAVOK 18/11 Q1015 NOSIG
18:30
V
19 °C 10 km+ - 050° 050° 5 kt METAR LFBE 251630Z AUTO 05005KT 020V090 9999 SCT042 SCT050 19/11 Q1015 NOSIG
18:00
V
19 °C 10 km+ - 020° 020° 5 kt METAR LFBE 251600Z AUTO 02005KT 350V050 9999 FEW040 SCT082 19/10 Q1015 NOSIG
17:30
V
20 °C 10 km+ 6.600 ft 300° 300° 5 kt METAR LFBE 251530Z AUTO 30005KT 240V030 9999 SCT046 SCT052 BKN066 20/10 Q1015 NOSIG
17:00
V
19 °C 10 km+ - 260° 260° 2 kt METAR LFBE 251500Z AUTO 26002KT CAVOK 19/10 Q1015 NOSIG
16:30
V
20 °C 10 km+ - Var Var 2 kt METAR LFBE 251430Z AUTO VRB02KT 9999 SCT036 20/11 Q1015 NOSIG
16:00
V
18 °C 10 km+ - 220° 220° 3 kt METAR LFBE 251400Z AUTO 22003KT 160V280 9999 FEW033 18/11 Q1015 NOSIG
15:30
V
18 °C 10 km+ - 280° 280° 4 kt METAR LFBE 251330Z AUTO 28004KT 220V350 CAVOK 18/11 Q1016 NOSIG
15:00
V
18 °C 10 km+ - Var Var 3 kt METAR LFBE 251300Z AUTO VRB03KT 9999 FEW025 18/10 Q1016 NOSIG
14:30
V
17 °C 10 km+ - Var Var 4 kt METAR LFBE 251230Z AUTO VRB04KT 9999 SCT018 17/12 Q1016 NOSIG
14:00
M
16 °C 10 km+ 1.600 ft 230° 230° 3 kt METAR LFBE 251200Z AUTO 23003KT 150V300 9999 BKN016 BKN022 16/11 Q1016 NOSIG
13:30
M
15 °C 10 km+ 1.500 ft Var Var 2 kt METAR LFBE 251130Z AUTO VRB02KT 9999 BKN015 OVC020 15/12 Q1017 NOSIG
13:00
M
14 °C 10 km+ 1.000 ft Var Var 2 kt METAR LFBE 251100Z AUTO VRB02KT 9999 OVC010 14/12 Q1016 BECMG FEW015 SCT045
12:30
I
13 °C 10 km+ 700 ft Var Var 3 kt METAR LFBE 251030Z AUTO VRB03KT 9999 OVC007 13/13 Q1016 BECMG FEW015 SCT045
12:00
I
12 °C 10 km+ 500 ft Var Var 3 kt METAR LFBE 251000Z AUTO VRB03KT 9999 OVC005 12/12 Q1016 BECMG FEW015 SCT045
11:30
L
12 °C 10 km+ 300 ft Var Var 1 kt METAR LFBE 250930Z AUTO VRB01KT 9999 OVC003 12/12 Q1016 BECMG FEW015 SCT045
11:00
L
12 °C 8 km 200 ft Var Var 2 kt METAR LFBE 250900Z AUTO VRB02KT 8000 OVC002 12/12 Q1016 BECMG FEW015 SCT045
10:30
L
11 °C 700 m - Var Var 1 kt METAR LFBE 250830Z AUTO VRB01KT 0700 R27/1000U FG VV/// 11/11 Q1016 BECMG 9999 NSW FEW015 SCT045
10:00
L
11 °C 450 m - Var Var 2 kt METAR LFBE 250800Z AUTO VRB02KT 0450 R27/0650N FG VV/// 11/11 Q1016 BECMG 9999 NSW FEW015 SCT045
09:30
L
11 °C 350 m - Var 000° 0 kt METAR LFBE 250730Z AUTO /////KT 0350 R27/0500N FG VV/// 11/11 Q1016
09:00
L
10 °C 300 m - 260° 260° 3 kt METAR LFBE 250700Z AUTO 26003KT 0300 R27/0400N FG VV/// 10/10 Q1015 BECMG 3000 BR BKN004
08:30
L
10 °C 300 m - Var Var 3 kt METAR LFBE 250630Z AUTO VRB03KT 0350 0300 R27/0400N FG VV/// 10/10 Q1015 BECMG 3000 BR BKN004
08:00
L
10 °C 450 m - Var 000° 0 kt METAR LFBE 250600Z AUTO /////KT 0450 R27/0600N FG VV/// 10/10 Q1015
07:30
L
10 °C 400 m - Var 000° 0 kt METAR LFBE 250530Z AUTO /////KT 0450 0400 R27/0550N FG VV/// 10/10 Q1015
07:00
L
10 °C 350 m - Var 000° 0 kt METAR LFBE 250500Z AUTO /////KT 0350 R27/0450N FG VV/// 10/10 Q1015
06:30
L
10 °C 350 m - Var 000° 0 kt METAR LFBE 250430Z AUTO /////KT 0350 R27/0550U FG VV/// 10/10 Q1015
06:00
L
11 °C 550 m - Var 000° 0 kt METAR LFBE 250400Z AUTO /////KT 0550 R27/0700N FG VV/// 11/11 Q1015
05:30
L
11 °C 500 m - Var 000° 0 kt METAR LFBE 250330Z AUTO /////KT 0550 0500 R27/0650N FG VV/// 11/11 Q1015
05:00
L
11 °C 550 m - 340° 340° 3 kt METAR LFBE 250300Z AUTO 34003KT 310V030 0600 0550 R27/0900U FG VV/// 11/11 Q1014 TEMPO 0100
04:30
L
11 °C 450 m - Var Var 2 kt METAR LFBE 250230Z AUTO VRB02KT 0450 R27/0550N FG VV/// 11/11 Q1015 TEMPO 0100
04:00
L
10 °C 350 m - Var Var 2 kt METAR LFBE 250200Z AUTO VRB02KT 0350 R27/0450N FG VV/// 10/10 Q1015 NOSIG
03:30
L
10 °C 350 m - Var Var 2 kt METAR LFBE 250130Z AUTO VRB02KT 0350 R27/0400N FG VV/// 10/10 Q1014 NOSIG
03:00
L
10 °C 650 m - Var Var 1 kt METAR LFBE 250100Z AUTO VRB01KT 0650 R27/0800N FG VV/// 10/10 Q1014 BECMG 0300 FG
02:30
L
10 °C 250 m - 070° 070° 3 kt METAR LFBE 250030Z AUTO 07003KT 0250 R27/0325N FG VV/// 10/10 Q1014 NOSIG
02:00
L
10 °C 350 m - 080° 080° 2 kt METAR LFBE 250000Z AUTO 08002KT 0350 R27/0400N FG VV/// 10/10 Q1014 NOSIG
01:30
L
10 °C 1 km - 210° 210° 3 kt METAR LFBE 242330Z AUTO 21003KT 1200 1000 R27/1600D BR VV/// 10/10 Q1014
01:00
L
10 °C 500 m - 150° 150° 1 kt METAR LFBE 242300Z AUTO 15001KT 0500 R27/0700N FG VV/// 10/10 Q1015
00:30
L
10 °C 450 m - Var Var 2 kt METAR LFBE 242230Z AUTO VRB02KT 0750 0450 R27/0600D FG VV/// 10/10 Q1015
00:00
L
11 °C 550 m - 070° 070° 2 kt METAR LFBE 242200Z AUTO 07002KT 0600 0550 R27/0550D FG VV/// 11/11 Q1015

24 settembre 2022

Tempo Codice Tempo metereologico Temp. Vista Base nuvolosa Vento METAR/SPECI
23:30
L
11 °C 400 m - 060° 060° 2 kt METAR LFBE 242130Z AUTO 06002KT 0450 0400 R27/0900U FG VV/// 11/11 Q1015
23:00
L
11 °C 700 m - 140° 140° 2 kt METAR LFBE 242100Z AUTO 14002KT 3600 0700 R27/1300D BCFG FEW001 SCT200 11/11 Q1015
22:30
L
12 °C 1 km - Var Var 2 kt METAR LFBE 242030Z AUTO VRB02KT 2600 1000 R27/2300D BR //////CB 12/12 Q1015
22:00
V
13 °C 10 km+ - Var Var 2 kt METAR LFBE 242000Z AUTO VRB02KT 9999 ///CB 13/12 Q1014 TEMPO 4000 SHRA
21:30
V
13 °C 10 km+ - Var Var 3 kt METAR LFBE 241930Z AUTO VRB03KT 9999 //////CB 13/13 Q1014 TEMPO 4000 SHRA
21:00
V
14 °C 10 km+ 6.600 ft 150° 150° 4 kt METAR LFBE 241900Z AUTO 15004KT 9999 -RA FEW011/// SCT050/// BKN066/// //////CB 14/13 Q1014 TEMPO 4000 SHRA
20:30
V
14 °C 10 km+ 4.800 ft Var Var 1 kt METAR LFBE 241830Z AUTO VRB01KT 9999 RA FEW023/// SCT038/// BKN048/// //////CB 14/13 Q1014 TEMPO 4000 SHRA
20:00
V
14 °C 10 km+ 7.800 ft 210° 210° 5 kt METAR LFBE 241800Z AUTO 21005KT 9999 -RA FEW022/// SCT062/// OVC078/// //////CB 14/13 Q1013 TEMPO 4000 SHRA
19:30
M
14 °C 5 km 7.200 ft 280° 280° 8 kt METAR LFBE 241730Z AUTO 28008KT 240V330 5000 RA BR FEW038/// SCT054/// OVC072/// //////CB 14/12 Q1014 TEMPO -TSRA
19:00
I
14 °C 4,4 km - 230° 230° 4 kt METAR LFBE 241700Z AUTO 23004KT 200V260 4400 RA BR ///CB 14/14 Q1014 TEMPO -TSRA
18:30
M
14 °C 6 km 6.800 ft 300° 300° 3 kt METAR LFBE 241630Z AUTO 30003KT 270V330 6000 -RA FEW019/// BKN068/// OVC078/// //////CB 14/13 Q1014 TEMPO 4000 SHRA
18:00
V
16 °C 10 km+ 6.400 ft 190° 190° 4 - 17 kt METAR LFBE 241600Z AUTO 19004G17KT 140V210 9999 VCTS FEW018/// SCT042/// BKN064/// //////CB 16/13 Q1013 TEMPO 33010KT 4000 SHRA
17:30
V
16 °C 10 km+ 6.800 ft 130° 130° 4 kt METAR LFBE 241530Z AUTO 13004KT 100V160 9999 -RA FEW035/// SCT058/// BKN068/// //////CB 16/13 Q1013 TEMPO 30010KT 4000 SHRA
17:00
V
17 °C 10 km+ 3.000 ft 330° 330° 6 kt METAR LFBE 241500Z AUTO 33006KT 300V020 9999 VCTS BKN030/// BKN045/// BKN052/// //////CB 17/12 Q1013 TEMPO 4000 SHRA
16:30
V
20 °C 10 km+ 17.000 ft 210° 210° 9 kt METAR LFBE 241430Z AUTO 21009KT 180V240 9999 FEW019/// SCT036/// BKN170/// //////CB 20/14 Q1012 TEMPO 30010KT 4000 SHRA
16:00
V
19 °C 10 km+ 14.000 ft 190° 190° 8 kt METAR LFBE 241400Z AUTO 19008KT 160V220 9999 FEW038/// SCT049/// BKN140/// //////CB 19/14 Q1013 TEMPO 30010KT 4000 SHRA
15:30
V
20 °C 10 km+ 4.600 ft 180° 180° 9 kt METAR LFBE 241330Z AUTO 18009KT 150V230 9999 FEW038/// BKN046/// BKN220/// ///CB 20/13 Q1013 TEMPO 30010KT 4000 SHRA
15:00
V
21 °C 10 km+ 21.000 ft 190° 190° 9 kt METAR LFBE 241300Z AUTO 19009KT 130V230 9999 TS FEW031/// SCT120/// BKN210/// ///CB 21/14 Q1013 TEMPO 30010KT 4000 SHRA
14:30
V
20 °C 10 km+ 3.100 ft 190° 190° 7 kt METAR LFBE 241230Z AUTO 19007KT 150V230 9999 VCTS SCT025/// BKN031/// BKN037/// //////CB 20/14 Q1013 TEMPO 30010KT 4000 SHRA
14:00
M
20 °C 10 km+ 2.500 ft 280° 280° 3 kt METAR LFBE 241200Z AUTO 28003KT 180V350 9999 OVC025/// //////CB 20/14 Q1014 TEMPO 4000 SHRA
13:30
M
22 °C 10 km+ 2.300 ft 170° 170° 7 kt METAR LFBE 241130Z AUTO 17007KT 130V230 9999 BKN023/// BKN036/// OVC050/// //////CB 22/14 Q1014 TEMPO 4000 SHRA
13:00
M
19 °C 10 km+ 1.600 ft 230° 230° 4 kt METAR LFBE 241100Z AUTO 23004KT 170V320 9999 BKN016 OVC021 19/14 Q1014 TEMPO 4000 SHRA BKN020TCU
12:30
M
18 °C 10 km+ 1.300 ft 230° 230° 4 kt METAR LFBE 241030Z AUTO 23004KT 160V290 9999 OVC013 18/15 Q1014 TEMPO 4000 SHRA BKN020TCU
12:00
M
17 °C 10 km+ 1.100 ft 190° 190° 5 kt METAR LFBE 241000Z AUTO 19005KT 140V230 9999 BKN011 BKN024 17/14 Q1015 TEMPO 4000 SHRA BKN020TCU
11:30
I
16 °C 10 km+ 800 ft 150° 150° 3 kt METAR LFBE 240930Z AUTO 15003KT 110V180 9999 OVC008 16/14 Q1015 TEMPO 4000 SHRA BKN020TCU BECMG 27010KT
11:00
I
15 °C 10 km+ 700 ft 140° 140° 6 kt METAR LFBE 240900Z AUTO 14006KT 110V170 9999 OVC007 15/15 Q1015 TEMPO 4000 SHRA BKN020TCU
10:30
L
15 °C 10 km+ 400 ft 150° 150° 5 kt METAR LFBE 240830Z AUTO 15005KT 110V170 9999 OVC004/// //////TCU 15/15 Q1015 TEMPO 4000 SHRA BKN030
10:00
L
14 °C 4,5 km 200 ft 140° 140° 4 kt METAR LFBE 240800Z AUTO 14004KT 080V190 4500 BR OVC002 14/14 Q1015 BECMG 9999 NSW BKN030
09:30
L
14 °C 900 m 200 ft 140° 140° 5 kt METAR LFBE 240730Z AUTO 14005KT 100V160 0900 R27/1300D FG OVC002 14/14 Q1014 BECMG 9999 NSW BKN030
09:00
L
13 °C 1,2 km - 130° 130° 4 kt METAR LFBE 240700Z AUTO 13004KT 090V180 1400 1200 R27/1800U BR VV/// //////TCU 13/13 Q1014 BECMG 9999 NSW BKN030
08:30
L
13 °C 700 m - 110° 110° 5 kt METAR LFBE 240630Z AUTO 11005KT 0700 R27/1000N FG VV/// 13/13 Q1014 BECMG 9999 NSW BKN030
08:00
L
12 °C 700 m - 120° 120° 3 kt METAR LFBE 240600Z AUTO 12003KT 090V150 0700 R27/0900D FG VV/// 12/12 Q1014 TEMPO 3000 BR
07:30
L
12 °C 1,3 km - Var Var 3 kt METAR LFBE 240530Z AUTO VRB03KT 1400 1300 R27/1700D BR VV/// 12/12 Q1014 TEMPO 3000 BR
07:00
L
13 °C 500 m - Var Var 2 kt METAR LFBE 240500Z AUTO VRB02KT 0550 0500 R27/0700N FG VV/// 13/13 Q1014 TEMPO 0300 FG
06:30
L
13 °C 650 m - Var Var 3 kt METAR LFBE 240430Z AUTO VRB03KT 0650 R27/0800N FG VV/// 13/13 Q1014 TEMPO 0300 FG
06:00
L
13 °C 450 m - Var Var 3 kt METAR LFBE 240400Z AUTO VRB03KT 0450 R27/0600N FG VV/// 13/13 Q1014 TEMPO 0300 FG
05:30
L
13 °C 400 m - Var Var 2 kt METAR LFBE 240330Z AUTO VRB02KT 0400 R27/0450N FG VV/// 13/13 Q1014 TEMPO 0300 FG
05:00
L
12 °C 300 m - Var Var 2 kt METAR LFBE 240300Z AUTO VRB02KT 0300 R27/0275D FG VV/// 12/12 Q1014 NOSIG
04:30
L
12 °C 1,2 km - 150° 150° 3 kt METAR LFBE 240230Z AUTO 15003KT 1200 R27/1600U BCFG VV/// 12/12 Q1014 TEMPO 0300 FG
Dati più vecchi

Noi e le terze parti seguiamo il tuo comportamento in internet sul nostro sito web con i cookie. Se continui, riteniamo che tu sia d'accordo con la nostra politica sui cookie. Per saperne di più